Change the Weather History Date:

Sunday, October 23, 2011

  Actual Average Record
Temperature  
Mean Temperature 45 °F -  
Max Temperature 57 °F 56 °F 77 °F (1963)
Min Temperature 33 °F 39 °F 19 °F (1969)
Degree Days  
Heating Degree Days 20    
Moisture  
Dew Point 40 °F    
Average Humidity 82    
Maximum Humidity 100    
Minimum Humidity 48    
Precipitation  
Precipitation 0.12 in - - ()
Sea Level Pressure  
Sea Level Pressure 29.91 in    
Wind  
Wind Speed 3 mph (South)    
Max Wind Speed 15 mph    
Max Gust Speed 18 mph    
Visibility 6 miles    
Events Thunderstorm    
Averages and records for this station are not official NWS values.
T = Trace of Precipitation, MM = Missing Value Source: NWS Daily Summary

Daily Weather History Graph

Daily Weather History Graph

Search for Another Location

Airport or City:

Trip Planner

Search our weather history database for the weather conditions in past years. The results will help you decide how hot, cold, wet, or windy it might be!

Date:

Astronomy

Oct. 23, 2011 Rise Set
Actual Time 7:15 AM CDT 5:54 PM CDT
Civil Twilight 6:45 AM CDT 6:23 PM CDT
Nautical Twilight 6:12 AM CDT 6:57 PM CDT
Astronomical Twilight 5:38 AM CDT 7:30 PM CDT
Moon 3:14 AM CDT (10/23) 3:50 PM CDT (10/23)
Length of Visible Light 11h 37m
Length of Day
10h 38m
Waning Crescent, 14% of the Moon is Illuminated
Oct 23
Waning Crescent
Oct 26
New
Nov 2
First Quarter
Nov 10
Full
Nov 18
Last Quarter

Hourly Weather History & Observations

Time (CDT) Temp. Windchill Dew Point Humidity Pressure Visibility Wind Dir Wind Speed Gust Speed Precip Events Conditions
12:15 AM 37.4 °F - 37.4 °F 100% 30.00 in 0.2 mi Calm Calm - N/A   Unknown
12:35 AM 37.4 °F 34.9 °F 35.6 °F 93% 30.00 in 0.8 mi NNW 3.5 mph - N/A   Unknown
12:55 AM 37.4 °F - 35.6 °F 93% 30.00 in 2.5 mi Calm Calm - N/A   Clear
1:15 AM 35.6 °F - 33.8 °F 93% 29.99 in 5.0 mi Calm Calm - N/A   Clear
1:35 AM 35.6 °F - 33.8 °F 93% 29.99 in 5.0 mi Calm Calm - N/A   Clear
1:55 AM 35.6 °F - 33.8 °F 93% 29.98 in 5.0 mi Calm Calm - N/A   Clear
2:15 AM 35.6 °F - 33.8 °F 93% 29.98 in 4.0 mi Calm Calm - N/A   Clear
2:35 AM 35.6 °F - 33.8 °F 93% 29.98 in 3.0 mi Calm Calm - N/A   Clear
2:55 AM 35.6 °F - 32.0 °F 87% 29.98 in 5.0 mi Calm Calm - N/A   Clear
3:15 AM 35.6 °F - 32.0 °F 87% 29.97 in 0.2 mi Calm Calm - N/A   Unknown
3:35 AM 35.6 °F - 32.0 °F 87% 29.97 in 5.0 mi Calm Calm - N/A   Clear
3:55 AM 33.8 °F - 30.2 °F 87% 29.97 in 5.0 mi Calm Calm - N/A   Clear
4:15 AM 33.8 °F - 30.2 °F 87% 29.98 in 5.0 mi Calm Calm - N/A   Partly Cloudy
4:35 AM 33.8 °F - 30.2 °F 87% 29.98 in 5.0 mi Calm Calm - N/A   Partly Cloudy
4:55 AM 35.6 °F - 30.2 °F 81% 29.98 in 4.0 mi Calm Calm - N/A   Clear
5:15 AM 33.8 °F - 30.2 °F 87% 29.97 in 3.0 mi Calm Calm - N/A   Scattered Clouds
5:35 AM 35.6 °F - 32.0 °F 87% 29.98 in 3.0 mi Calm Calm - N/A   Overcast
5:55 AM 33.8 °F - 28.4 °F 81% 29.98 in 1.0 mi Calm Calm - N/A   Overcast
6:15 AM 33.8 °F - 32.0 °F 93% 29.98 in 0.2 mi Calm Calm - N/A   Overcast
6:35 AM 35.6 °F - 32.0 °F 87% 29.98 in 0.2 mi Calm Calm - N/A   Overcast
6:55 AM 35.6 °F 32.8 °F 33.8 °F 93% 29.97 in 0.8 mi West 3.5 mph - N/A   Overcast
7:15 AM 35.6 °F - 33.8 °F 93% 29.97 in 0.5 mi Calm Calm - N/A   Overcast
7:35 AM 35.6 °F - 33.8 °F 93% 29.97 in 0.2 mi Calm Calm - N/A   Overcast
7:55 AM 37.4 °F - 35.6 °F 93% 29.97 in 0.2 mi Calm Calm - N/A   Overcast
8:15 AM 37.4 °F 34.9 °F 35.6 °F 93% 29.97 in 0.2 mi West 3.5 mph - N/A   Overcast
8:35 AM 39.2 °F 37.0 °F 35.6 °F 87% 29.96 in 0.2 mi West 3.5 mph - N/A   Overcast
8:55 AM 39.2 °F 35.0 °F 37.4 °F 93% 29.97 in 0.2 mi WSW 5.8 mph - N/A   Overcast
9:15 AM 39.2 °F 35.0 °F 37.4 °F 93% 29.96 in 0.8 mi West 5.8 mph - N/A   Overcast
9:55 AM 46.4 °F - 42.8 °F 87% 29.95 in 5.0 mi Calm Calm - N/A   Partly Cloudy
10:15 AM 48.2 °F - 42.8 °F 82% 29.94 in 8.0 mi Calm Calm - N/A   Clear
10:35 AM 51.8 °F - 42.8 °F 71% 29.94 in 10.0 mi South 3.5 mph - N/A   Clear
10:55 AM 53.6 °F - 42.8 °F 67% 29.95 in 10.0 mi SW 4.6 mph - N/A   Clear
11:15 AM 55.4 °F - 41.0 °F 58% 29.94 in 10.0 mi SW 8.1 mph - N/A   Clear
11:35 AM 55.4 °F - 37.4 °F 51% 29.93 in 10.0 mi West 9.2 mph - N/A   Scattered Clouds
11:55 AM 57.2 °F - 39.2 °F 51% 29.93 in 10.0 mi SSW 5.8 mph - N/A   Mostly Cloudy
12:15 PM 57.2 °F - 37.4 °F 48% 29.92 in 10.0 mi SW 8.1 mph - N/A   Overcast
12:35 PM 53.6 °F - 44.6 °F 72% 29.91 in 9.0 mi East 6.9 mph - N/A   Overcast
12:55 PM 51.8 °F - 44.6 °F 76% 29.90 in 8.0 mi ESE 8.1 mph - N/A   Overcast
1:15 PM 51.8 °F - 44.6 °F 76% 29.90 in 10.0 mi ESE 4.6 mph - N/A   Overcast
1:35 PM 53.6 °F - 44.6 °F 72% 29.90 in 10.0 mi ESE 4.6 mph - N/A   Overcast
1:55 PM 53.6 °F - 44.6 °F 72% 29.90 in 10.0 mi Calm Calm - N/A   Overcast
2:15 PM 53.6 °F - 44.6 °F 72% 29.88 in 8.0 mi SE 5.8 mph - N/A   Mostly Cloudy
2:35 PM 53.6 °F - 46.4 °F 77% 29.87 in 10.0 mi SE 5.8 mph - N/A   Overcast
2:55 PM 53.6 °F - 46.4 °F 77% 29.86 in 10.0 mi SSE 8.1 mph - N/A   Mostly Cloudy
3:15 PM 55.4 °F - 46.4 °F 72% 29.85 in 10.0 mi SSE 8.1 mph - N/A   Mostly Cloudy
3:35 PM 55.4 °F - 44.6 °F 67% 29.84 in 10.0 mi SE 10.4 mph - N/A   Partly Cloudy
3:55 PM 53.6 °F - 44.6 °F 72% 29.83 in 10.0 mi SSE 10.4 mph - N/A   Mostly Cloudy
4:15 PM 53.6 °F - 44.6 °F 72% 29.84 in 10.0 mi South 6.9 mph - N/A   Overcast
4:35 PM 51.8 °F - 46.4 °F 82% 29.89 in 8.0 mi WSW 6.9 mph - 0.04 in   Overcast
4:55 PM 51.8 °F - 44.6 °F 76% 29.81 in 9.0 mi ESE 15.0 mph - 0.08 in   Overcast
5:15 PM 51.8 °F - 46.4 °F 82% 29.82 in 10.0 mi ESE 4.6 mph - N/A   Overcast
5:35 PM 50.0 °F - 44.6 °F 82% 29.82 in 9.0 mi SSE 6.9 mph - N/A   Overcast
5:55 PM 50.0 °F - 46.4 °F 87% 29.82 in 8.0 mi SSE 8.1 mph - N/A   Mostly Cloudy
6:15 PM 50.0 °F - 46.4 °F 87% 29.81 in 8.0 mi SSE 9.2 mph - N/A   Scattered Clouds
6:35 PM 51.8 °F - 46.4 °F 82% 29.80 in 10.0 mi SSE 8.1 mph - N/A   Mostly Cloudy
6:55 PM 51.8 °F - 46.4 °F 82% 29.80 in 10.0 mi South 10.4 mph - N/A   Overcast
7:15 PM 51.8 °F - 46.4 °F 82% 29.80 in 10.0 mi SSE 11.5 mph - N/A   Overcast
7:35 PM 51.8 °F - 48.2 °F 88% 29.80 in 10.0 mi SSW 8.1 mph - N/A Thunderstorm Thunderstorm
7:55 PM 51.8 °F - 46.4 °F 82% 29.79 in 9.0 mi South 11.5 mph 18.4 mph 0.04 in Thunderstorm Thunderstorm
8:15 PM 51.8 °F - 46.4 °F 82% 29.78 in 10.0 mi South 11.5 mph - N/A   Mostly Cloudy
8:35 PM 51.8 °F - 46.4 °F 82% 29.78 in 10.0 mi South 9.2 mph - N/A   Partly Cloudy
8:55 PM 51.8 °F - 46.4 °F 82% 29.77 in 10.0 mi SSW 6.9 mph - N/A   Partly Cloudy
9:15 PM 51.8 °F - 44.6 °F 76% 29.76 in 10.0 mi SSW 4.6 mph - N/A   Partly Cloudy
9:35 PM 51.8 °F - 46.4 °F 82% 29.76 in 10.0 mi SW 5.8 mph - N/A   Partly Cloudy
9:55 PM 51.8 °F - 46.4 °F 82% 29.76 in 10.0 mi SSW 8.1 mph - N/A   Clear
10:35 PM 53.6 °F - 46.4 °F 77% 29.77 in 10.0 mi WSW 9.2 mph - N/A   Clear
10:55 PM 53.6 °F - 46.4 °F 77% 29.78 in 10.0 mi WSW 10.4 mph 16.1 mph N/A   Clear
11:15 PM 51.8 °F - 44.6 °F 76% 29.78 in 10.0 mi West 13.8 mph - N/A   Clear
11:35 PM 51.8 °F - 44.6 °F 76% 29.79 in 10.0 mi WNW 15.0 mph 20.7 mph N/A   Clear
11:55 PM 51.8 °F - 44.6 °F 76% 29.81 in 10.0 mi West 12.7 mph 19.6 mph N/A   Clear